Weather observations for the past three days for
Anaktuvuk Pass, Anaktuvuk Pass Airport
Metric (Imperial)
Date Time (akdt) Wind (kph) Vis. (km) Weather Sky Cond. Temperature (ºC) Relative Humidity Wind Chill (°C) Heat Index (°C) Pressure Precipitation (cm)
Air Dwpt 6 hour altimeter (cm) sea level (mb) 1 hr 3 hr 6 hr
Max. Min.
16 02:56 N 9 14.48 Partly Cloudy FEW065 SCT080 8.3 5.6 83% 7 76.56 1022.8
16 01:56 N 9 16.09 A Few Clouds FEW080 7.8 5.6 86% 6 76.58 1023.1
16 00:56 NE 7 16.09 Partly Cloudy FEW080 SCT100 9.4 6.1 80% 9 76.58 1023.1
15 23:56 NE 13 16.09 Fair CLR 11.1 6.7 75% 76.56 1022.6
15 22:56 N 9 12.87 Fair CLR 13.3 7.8 70% 76.56 1022.5
15 21:56 N 13 16.09 Fair CLR 15 7.8 18.9 14.4 62% 76.53 1022.3
15 20:56 W 9 16.09 Mostly Cloudy SCT040 BKN049 BKN065 15 7.2 60% 76.56 1022.8
15 19:56 NE 17 16.09 A Few Clouds FEW070 15.6 7.2 58% 76.56 1022.8
15 18:56 NE 19 16.09 Mostly Cloudy BKN085 16.7 7.2 54% 76.56 1022.8
15 17:56 NE 11 16.09 Mostly Cloudy SCT060 SCT075 BKN090 16.1 7.8 58% 76.56 1023.0
15 16:56 NE 19 16.09 A Few Clouds FEW047 17.8 7.2 50% 76.53 1022.6
15 15:56 NE 28 G 37 16.09 A Few Clouds FEW050 18.3 7.2 18.3 11.7 49% 76.53 1022.4
15 14:56 NE 24 G 33 16.09 Fair CLR 17.2 7.8 54% 76.53 1022.3
15 13:56 NE 22 16.09 Fair CLR 17.8 7.8 52% 76.53 1022.3
15 12:56 NE 19 16.09 Partly Cloudy SCT080 15.6 7.2 58% 76.53 1022.5
15 11:56 NE 17 16.09 Fair CLR 16.1 7.2 56% 76.56 1022.7
15 10:56 NE 17 16.09 Mostly Cloudy BKN080 13.9 7.2 64% 76.61 1023.3
15 09:56 NE 9 16.09 Partly Cloudy SCT075 11.7 6.7 11.7 5 72% 76.63 1023.7
15 08:56 NE 13 16.09 Fair CLR 10.6 5.6 71% 76.63 1023.7
15 07:56 N 11 16.09 Overcast OVC060 9.4 5.6 77% 8 76.63 1023.8
15 06:56 NE 13 16.09 Partly Cloudy SCT060 8.3 5 80% 6 76.66 1024.0
15 05:56 N 9 16.09 Fair CLR 7.2 5 86% 6 76.66 1024.2
15 04:56 N 11 16.09 Fair CLR 6.1 4.4 89% 4 76.66 1024.2
15 03:56 NE 7 16.09 Fair CLR 5.6 3.9 13.9 5.6 89% 4 76.66 1024.1
15 02:56 N 11 16.09 Fair CLR 7.8 5 83% 6 76.63 1023.9
15 01:56 NE 11 16.09 A Few Clouds FEW110 8.3 5 80% 7 76.63 1023.7
15 00:56 E 20 16.09 Mostly Cloudy BKN120 10.6 6.1 74% 76.61 1023.2
14 23:56 E 20 16.09 A Few Clouds FEW120 11.1 6.1 72% 76.58 1022.8
14 22:56 NE 17 16.09 Mostly Cloudy BKN110 12.2 6.1 67% 76.56 1022.4
14 21:56 NE 19 16.09 Overcast FEW050 OVC100 13.9 6.7 18.3 13.9 62% 76.56 1022.5
14 20:56 N 13 16.09 Overcast SCT034 OVC046 15 7.2 60% 76.58 1022.7
14 19:56 N 15 16.09 Overcast SCT041 OVC050 15.6 6.7 56% 76.56 1022.5
14 18:56 N 15 G 37 14.48 Overcast OVC045 17.2 7.2 52% 76.53 1022.4
14 17:56 N 20 G 28 16.09 Mostly Cloudy BKN045 17.2 6.7 50% 76.48 1021.7
14 16:56 NE 22 G 48 16.09 A Few Clouds FEW048 17.8 7.2 50% 76.48 1021.7
14 15:56 NE 26 G 39 16.09 Fair CLR 18.3 7.2 18.3 15 49% 76.45 1021.3
14 14:56 NE 28 16.09 Fair CLR 17.8 6.7 48% 76.45 1021.2
14 13:56 NE 28 G 41 16.09 Fair CLR 17.8 6.7 48% 76.45 1021.1
14 12:56 NE 30 G 37 14.48 Mostly Cloudy BKN100 16.7 6.1 50% 76.45 1021.0
14 11:56 NE 22 16.09 Fair CLR 17.2 6.1 48% 76.45 1021.0
14 10:56 NE 19 16.09 Fair CLR 16.1 6.1 52% 76.48 1021.1
14 09:56 NE 19 16.09 Fair CLR 15 6.1 15 6.7 56% 76.48 1021.1
14 08:56 NE 15 16.09 A Few Clouds FEW100 13.9 5 55% 76.48 1021.1
14 07:56 NE 15 16.09 Fair CLR 12.2 4.4 59% 76.48 1021.3
14 06:56 N 9 16.09 Fair CLR 10 3.9 66% 9 76.48 1021.4
14 05:56 N 9 16.09 Fair CLR 9.4 3.9 69% 8 76.48 1021.6
14 04:56 N 9 16.09 Fair CLR 6.7 3.3 79% 5 76.48 1021.6
14 03:56 N 7 16.09 Fair CLR 8.3 3.9 16.1 7.2 74% 7 76.48 1021.5
14 02:56 N 11 16.09 Fair CLR 8.9 3.9 71% 7 76.45 1021.1
14 01:56 N 11 16.09 Fair CLR 10 4.4 68% 9 76.45 1020.7
14 00:56 N 9 16.09 Fair CLR 11.1 3.9 61% 76.43 1020.4
13 23:56 NE 11 16.09 Fair CLR 12.8 4.4 57% 76.43 1020.1
13 22:56 N 6 16.09 Fair CLR 14.4 5 53% 76.4 1020.0
13 21:56 NE 15 16.09 Fair CLR 16.7 4.4 21.1 16.7 44% 76.38 1019.4
13 20:56 NE 24 G 35 16.09 Fair CLR 17.8 3.9 40% 76.33 1019.1
13 19:56 NE 22 G 33 16.09 Fair CLR 19.4 5.6 41% 76.33 1018.8
13 18:56 NE 20 G 31 16.09 Fair CLR 21.1 5.6 37% 76.3 1018.7
13 17:56 NE 17 16.09 Mostly Cloudy BKN100 BKN120 18.9 5.6 42% 76.3 1019.0
13 16:56 NE 17 16.09 Mostly Cloudy BKN100 20 6.7 42% 76.33 1019.5
13 15:56 NW 7 16.09 Overcast BKN080 OVC095 18.3 5 23.3 16.1 42% 76.33 1019.6 0.05 0.05
13 14:56 NW 17 11.27 Overcast BKN080 OVC100 20.6 5.6 38% 76.3 1019.1
13 13:56 NE 15 16.09 Fair CLR 22.8 2.8 27% 76.28 1018.4
13 12:56 NE 17 16.09 Fair CLR 21.7 2.8 29% 76.28 1018.5
13 11:56 Vrbl 6 16.09 Fair CLR 21.1 2.8 30% 76.3 1018.6
13 10:56 Vrbl 6 6.44 Fair with Haze CLR 19.4 2.8 33% 76.33 1018.8
13 09:56 Vrbl 6 12.87 Fair CLR 18.3 3.9 18.3 6.1 39% 76.33 1018.9
13 08:56 S 7 16.09 Fair CLR 16.1 5 48% 76.33 1018.9
13 07:56 S 6 16.09 Fair CLR 14.4 5.6 56% 76.33 1018.9
13 06:56 S 6 16.09 Fair CLR 12.2 6.1 67% 76.33 1019.1
13 05:56 Calm 16.09 Fair CLR 10.6 6.1 74% 76.33 1019.0
13 04:56 Calm 16.09 Fair CLR 6.7 5 89% 76.3 1019.1
13 03:56 N 7 16.09 Fair CLR 6.7 4.4 17.8 5.6 85% 6 76.3 1018.9
Date Time (akdt) Wind (kph) Vis. (km) Weather Sky Cond. Air Dwpt Max. Min. Relative Humidity Wind Chill (°C) Heat Index (°C) altimeter (cm) sea level (mb) 1 hr 3 hr 6 hr
6 hour
Temperature (ºC) Pressure Precipitation (cm)